Bigfork, MN

1:51 AM CDT on March 25, 2017 (GMT -0500)
Bigfork Municipal

Weather History for KFOZ - January, 2013

Change the Weather History Date:

Wednesday, January 23, 2013

  Actual Average (KGPZ) Record (KGPZ)
Temperature  
Mean Temperature -12 °F -  
Max Temperature 0 °F 21 °F 51 °F (1942)
Min Temperature -25 °F 0 °F -43 °F (1936)
Degree Days  
Heating Degree Days 78    
Moisture  
Dew Point -16 °F    
Average Humidity 68    
Maximum Humidity 78    
Minimum Humidity 50    
Precipitation  
Precipitation 0.00 in - - ()
Sea Level Pressure  
Sea Level Pressure 30.23 in    
Wind  
Wind Speed 4 mph (WNW)    
Max Wind Speed 13 mph    
Max Gust Speed 22 mph    
Visibility 8 miles    
Events Snow    
Averages and records for this station are not official NWS values.
T = Trace of Precipitation, MM = Missing Value Source: NWS Daily Summary

Daily Weather History Graph

Daily Weather History Graph

Search for Another Location

Airport or City:

Trip Planner

Search our weather history database for the weather conditions in past years. The results will help you decide how hot, cold, wet, or windy it might be!

Date:

Astronomy

Jan. 23, 2013 Rise Set
Actual Time 7:51 AM CST 5:01 PM CST
Civil Twilight 7:17 AM CST 5:35 PM CST
Nautical Twilight 6:39 AM CST 6:13 PM CST
Astronomical Twilight 6:03 AM CST 6:50 PM CST
Moon 2:09 PM CST (1/23) 5:07 AM CST (1/23)
Length of Visible Light 10h 18m
Length of Day
9h 10m
Waxing Gibbous, 89% of the Moon is Illuminated
Jan 23
Waxing Gibbous
Jan 26
Full
Feb 3
Last Quarter
Feb 10
New
Feb 17
First Quarter

Hourly Weather History & Observations

Time (CST) Temp. Windchill Dew Point Humidity Pressure Visibility Wind Dir Wind Speed Gust Speed Precip Events Conditions
12:13 AM -14.8 °F - -20.2 °F 77% 30.07 in 10.0 mi Calm Calm - N/A   Scattered Clouds
12:33 AM -14.8 °F - -20.2 °F 77% 30.06 in 10.0 mi Calm Calm - N/A   Scattered Clouds
12:53 AM -14.8 °F - -20.2 °F 77% 30.06 in 10.0 mi Calm Calm - N/A   Mostly Cloudy
1:13 AM -16.6 °F - -22.0 °F 76% 30.06 in 10.0 mi Calm Calm - N/A   Scattered Clouds
1:33 AM -14.8 °F -24.8 °F -20.2 °F 77% 30.05 in 10.0 mi SW 3.5 mph - N/A   Mostly Cloudy
1:53 AM -11.2 °F - -16.6 °F 77% 30.06 in 10.0 mi Calm Calm - N/A   Overcast
2:13 AM -7.6 °F - -14.8 °F 71% 30.06 in 10.0 mi Calm Calm - N/A   Mostly Cloudy
2:33 AM -5.8 °F -16.7 °F -11.2 °F 77% 30.06 in 3.0 mi WSW 4.6 mph - N/A Snow Light Snow
2:53 AM -4.0 °F -16.3 °F -9.4 °F 78% 30.06 in 10.0 mi WSW 5.8 mph - N/A Snow Light Snow
3:13 AM -4.0 °F -16.3 °F -9.4 °F 78% 30.05 in 7.0 mi WSW 5.8 mph - N/A Snow Light Snow
3:33 AM -2.2 °F -14.2 °F -9.4 °F 71% 30.05 in 10.0 mi WSW 5.8 mph - N/A Snow Light Snow
3:53 AM -2.2 °F -10.4 °F -9.4 °F 71% 30.05 in 10.0 mi West 3.5 mph - N/A Snow Light Snow
4:13 AM -2.2 °F -10.4 °F -7.6 °F 78% 30.04 in 7.0 mi WSW 3.5 mph - N/A Snow Light Snow
4:33 AM -2.2 °F -14.2 °F -7.6 °F 78% 30.03 in 7.0 mi SW 5.8 mph - N/A Snow Light Snow
4:53 AM -2.2 °F -15.6 °F -7.6 °F 78% 30.02 in 10.0 mi SW 6.9 mph - N/A   Overcast
5:13 AM -0.4 °F -12.0 °F -5.8 °F 78% 30.02 in 7.0 mi WSW 5.8 mph - N/A Snow Light Snow
5:33 AM -0.4 °F -12.0 °F -5.8 °F 78% 30.02 in 10.0 mi WSW 5.8 mph - N/A   Overcast
5:53 AM -0.4 °F -13.4 °F -5.8 °F 78% 30.02 in 10.0 mi WSW 6.9 mph - N/A   Overcast
6:13 AM -0.4 °F -8.3 °F -5.8 °F 78% 30.02 in 10.0 mi West 3.5 mph - N/A Snow Light Snow
6:33 AM -0.4 °F -10.4 °F -5.8 °F 78% 30.03 in 4.0 mi West 4.6 mph - N/A Snow Light Snow
6:53 AM -0.4 °F -10.4 °F -5.8 °F 78% 30.03 in 7.0 mi WSW 4.6 mph - N/A Snow Light Snow
7:13 AM -0.4 °F -10.4 °F -5.8 °F 78% 30.02 in 10.0 mi WSW 4.6 mph - N/A   Overcast
7:33 AM -0.4 °F -10.4 °F -5.8 °F 78% 30.02 in 10.0 mi West 4.6 mph - N/A   Mostly Cloudy
7:53 AM -2.2 °F -14.2 °F -7.6 °F 78% 30.03 in 10.0 mi West 5.8 mph - N/A Snow Light Snow
8:13 AM -0.4 °F -13.4 °F -7.6 °F 72% 30.05 in 7.0 mi NW 6.9 mph - N/A Snow Light Snow
8:33 AM -0.4 °F -13.4 °F -7.6 °F 72% 30.05 in 7.0 mi WNW 6.9 mph - N/A   Overcast
8:53 AM -2.2 °F -16.8 °F -7.6 °F 78% 30.07 in 4.0 mi NW 8.1 mph 16.1 mph N/A   Haze
9:13 AM -2.2 °F -18.9 °F -9.4 °F 71% 30.08 in 2.5 mi NW 10.4 mph 17.3 mph N/A   Haze
9:33 AM -2.2 °F -15.6 °F -9.4 °F 71% 30.10 in 1.2 mi NW 6.9 mph 17.3 mph N/A Snow Light Snow
9:53 AM -2.2 °F -20.7 °F -13.0 °F 60% 30.12 in 5.0 mi NNW 12.7 mph 21.9 mph N/A   Haze
10:13 AM -4.0 °F -19.0 °F -14.8 °F 60% 30.13 in 2.5 mi NNW 8.1 mph 20.7 mph N/A   Haze
10:33 AM -4.0 °F -20.2 °F -14.8 °F 60% 30.15 in 5.0 mi NW 9.2 mph 18.4 mph N/A   Haze
10:53 AM -5.8 °F -19.9 °F -14.8 °F 65% 30.17 in 2.5 mi NNW 6.9 mph 20.7 mph N/A   Haze
11:13 AM -5.8 °F -24.4 °F -14.8 °F 65% 30.18 in 2.0 mi NW 11.5 mph 19.6 mph N/A   Haze
11:33 AM -5.8 °F -21.2 °F -14.8 °F 65% 30.18 in 2.5 mi NW 8.1 mph 19.6 mph N/A   Haze
11:53 AM -5.8 °F -22.4 °F -16.6 °F 60% 30.19 in 7.0 mi NNW 9.2 mph 17.3 mph N/A   Mostly Cloudy
12:13 PM -5.8 °F -25.2 °F -16.6 °F 60% 30.20 in 4.0 mi NNW 12.7 mph 20.7 mph N/A   Haze
12:33 PM -4.0 °F -22.1 °F -16.6 °F 55% 30.21 in 5.0 mi NW 11.5 mph 19.6 mph N/A   Haze
12:53 PM -5.8 °F -24.4 °F -16.6 °F 60% 30.22 in 7.0 mi NW 11.5 mph 18.4 mph N/A   Mostly Cloudy
1:13 PM -5.8 °F -25.2 °F -18.4 °F 55% 30.23 in 4.0 mi NNW 12.7 mph 20.7 mph N/A   Haze
1:33 PM -5.8 °F -21.2 °F -16.6 °F 60% 30.24 in 3.0 mi NW 8.1 mph 17.3 mph N/A   Haze
1:53 PM -5.8 °F -25.2 °F -18.4 °F 55% 30.26 in 5.0 mi NNW 12.7 mph 20.7 mph N/A   Haze
2:13 PM -5.8 °F -24.4 °F -20.2 °F 50% 30.28 in 10.0 mi NNW 11.5 mph 18.4 mph N/A   Scattered Clouds
2:33 PM -5.8 °F -24.4 °F -18.4 °F 55% 30.30 in 10.0 mi North 11.5 mph 16.1 mph N/A   Scattered Clouds
2:53 PM -5.8 °F -22.4 °F -18.4 °F 55% 30.31 in 10.0 mi NNW 9.2 mph 18.4 mph N/A   Scattered Clouds
3:13 PM -7.6 °F -23.4 °F -18.4 °F 59% 30.33 in 10.0 mi NNW 8.1 mph - N/A   Scattered Clouds
3:33 PM -7.6 °F -22.1 °F -20.2 °F 54% 30.34 in 10.0 mi NNW 6.9 mph 16.1 mph N/A   Scattered Clouds
3:53 PM -7.6 °F -18.8 °F -20.2 °F 54% 30.35 in 10.0 mi NNW 4.6 mph - N/A   Clear
4:13 PM -7.6 °F -22.1 °F -20.2 °F 54% 30.37 in 10.0 mi NNW 6.9 mph - N/A   Clear
4:33 PM -7.6 °F -20.6 °F -20.2 °F 54% 30.38 in 10.0 mi NNW 5.8 mph - N/A   Clear
4:53 PM -9.4 °F -18.6 °F -20.2 °F 59% 30.41 in 10.0 mi NW 3.5 mph - N/A   Clear
5:13 PM -9.4 °F -22.7 °F -20.2 °F 59% 30.42 in 10.0 mi NW 5.8 mph - N/A   Clear
5:33 PM -9.4 °F -25.6 °F -20.2 °F 59% 30.43 in 10.0 mi NW 8.1 mph - N/A   Scattered Clouds
5:53 PM -9.4 °F -22.7 °F -20.2 °F 59% 30.45 in 10.0 mi NW 5.8 mph - N/A   Scattered Clouds
6:13 PM -11.2 °F -20.6 °F -20.2 °F 64% 30.46 in 7.0 mi NW 3.5 mph - N/A   Scattered Clouds
6:33 PM -11.2 °F -23.0 °F -20.2 °F 64% 30.47 in 10.0 mi NW 4.6 mph - N/A   Clear
6:52 PM -13.0 °F -22.7 °F -20.2 °F 70% 30.47 in 10.0 mi NW 3.5 mph - N/A   Clear
7:13 PM -13.0 °F -22.7 °F -20.2 °F 70% 30.47 in 10.0 mi NW 3.5 mph - N/A   Clear
7:33 PM -14.8 °F - -20.2 °F 77% 30.49 in 10.0 mi Calm Calm - N/A   Clear
7:53 PM -14.8 °F -27.2 °F -22.0 °F 70% 30.49 in 10.0 mi NNW 4.6 mph - N/A   Clear
8:13 PM -14.8 °F -27.2 °F -23.8 °F 64% 30.50 in 10.0 mi NNW 4.6 mph - N/A   Clear
8:34 PM -16.6 °F -29.3 °F -23.8 °F 70% 30.50 in 10.0 mi North 4.6 mph - N/A   Clear
9:13 PM -16.6 °F - -23.8 °F 70% 30.51 in 10.0 mi Calm Calm - N/A   Clear
9:33 PM -18.4 °F - -23.8 °F 76% 30.52 in 10.0 mi Calm Calm - N/A   Clear
9:53 PM -18.4 °F - -25.6 °F 70% 30.54 in 10.0 mi Calm Calm - N/A   Clear
10:13 PM -20.2 °F - -27.4 °F 69% 30.54 in 10.0 mi Calm Calm - N/A   Clear
10:33 PM -22.0 °F - -29.2 °F 69% 30.54 in 10.0 mi Calm Calm - N/A   Clear
10:53 PM -23.8 °F - -29.2 °F 76% 30.56 in 10.0 mi Calm Calm - N/A   Clear
11:13 PM -25.6 °F - -32.8 °F 69% 30.57 in 10.0 mi Calm Calm - N/A   Clear
11:53 PM -25.6 °F - -34.6 °F 63% 30.58 in 10.0 mi Calm Calm - N/A   Clear